This is the latest recevied weather packets stored in our database for station/object K7AEL. If no packets are shown the sender has not sent any weather packets the latest 10 day(s).
| Time | Temp. | Humidity | Pressure | Rain* | Wind** | Luminosity | Snow |
|---|---|---|---|---|---|---|---|
| 1777791881 | 25.56° C | 31% | 1013.9 hPa | 0 mm | - | 0 W/m² | - |
| 1777791580 | 25° C | 31% | 1013.9 hPa | 0 mm | - | 0 W/m² | - |
| 1777791277 | 25° C | 31% | 1014 hPa | 0 mm | - | 0 W/m² | - |
| 1777790974 | 25.56° C | 31% | 1013.8 hPa | 0 mm | - | 0 W/m² | - |
| 1777790672 | 25.56° C | 31% | 1013.7 hPa | 0 mm | - | 0 W/m² | - |
| 1777790368 | 25.56° C | 31% | 1013.5 hPa | 0 mm | - | 0 W/m² | - |
| 1777790066 | 25.56° C | 31% | 1013.6 hPa | 0 mm | - | 0 W/m² | - |
| 1777789765 | 25.56° C | 30% | 1013.5 hPa | 0 mm | - | 0 W/m² | - |
| 1777789463 | 25.56° C | 30% | 1013.6 hPa | 0 mm | - | 0 W/m² | - |
| 1777789161 | 25.56° C | 30% | 1013.5 hPa | 0 mm | - | 0 W/m² | - |
| 1777788857 | 25.56° C | 30% | 1013.4 hPa | 0 mm | - | 0 W/m² | - |
| 1777788553 | 26.11° C | 29% | 1013.4 hPa | 0 mm | - | 0 W/m² | - |
| 1777788247 | 26.11° C | 29% | 1013.2 hPa | 0 mm | - | 0 W/m² | - |
| 1777787943 | 26.11° C | 29% | 1013.2 hPa | 0 mm | - | 0 W/m² | - |
| 1777787639 | 26.67° C | 28% | 1013.2 hPa | 0 mm | - | 0 W/m² | - |
| 1777787335 | 26.67° C | 28% | 1012.9 hPa | 0 mm | - | 0 W/m² | - |
| 1777787030 | 26.67° C | 28% | 1013.2 hPa | 0 mm | - | 0 W/m² | - |
| 1777786729 | 26.67° C | 28% | 1013.2 hPa | 0 mm | - | 0 W/m² | - |
| 1777786427 | 26.67° C | 28% | 1013 hPa | 0 mm | - | 0 W/m² | - |
| 1777786123 | 26.67° C | 28% | 1013.2 hPa | 0 mm | - | 0 W/m² | - |
| 1777785820 | 26.67° C | 28% | 1013 hPa | 0 mm | - | 0 W/m² | - |
| 1777785516 | 27.22° C | 27% | 1013 hPa | 0 mm | - | 0 W/m² | - |
| 1777785212 | 26.67° C | 27% | 1013 hPa | 0 mm | - | 0 W/m² | - |
| 1777784910 | 27.22° C | 27% | 1013.2 hPa | 0 mm | - | 0 W/m² | - |
| 1777784606 | 27.22° C | 27% | 1012.9 hPa | 0 mm | - | 0 W/m² | - |
* Rain latest hour (hover to see other rain measurements)
** Current wind speed in m/s (hover to see current wind gust speed)